STARLINK-31850 (59903 NORAD) Tracking and Keplerian Element Data

This shows tracking and keplerian element data for the satellite.

Feedback or suggestion? Click here.




ElementValue
Catalog59903
NameSTARLINK-31850
Epoch Orbit286
Epoch Day160.16667824
Epoch Year2024
RAAN174.3057
Inclination43.0029
Eccentricity0.0001227
Argument of Perigee269.5248
Mean Anonmoly345.3541
Mean Motion15.79917442
Decay Rate-0.01109419
L11 59903U 24100U 24160.16667824 -.01109419 00000+0 -64747-2 0 9992
L22 59903 43.0029 174.3057 0001227 269.5248 345.3541 15.79917442 2861



Live tracking and technical data element details for STARLINK-31850 (NORAD 59903). STARLINK-31850 can be tracked NOW for your location showing map with azimuth and elevation plus other details from your city location.







IsCatalogInMostPopularTable: catalog: 59903, numindb: 6
Update: records affected: 1



GetName: 59903 STARLINK-31850

Hit Count: updated at: Tue, 16 Jul 2024 04:12:15 GMT